Washington, PA

5:55 AM EDT on April 26, 2018 (GMT -0400)
Washington County

Weather History for KAFJ - October, 2012

Change the Weather History Date:

Sunday, October 28, 2012

  Actual Average Record
Temperature  
Mean Temperature 43 °F -  
Max Temperature 44 °F 56 °F 77 °F (2014)
Min Temperature 42 °F 36 °F 26 °F (1999)
Degree Days  
Heating Degree Days 22    
Moisture  
Dew Point 41 °F    
Average Humidity 91    
Maximum Humidity 93    
Minimum Humidity 87    
Precipitation  
Precipitation 0.00 in - - ()
Sea Level Pressure  
Sea Level Pressure 29.92 in    
Wind  
Wind Speed 8 mph (North)    
Max Wind Speed 13 mph    
Max Gust Speed 18 mph    
Visibility 7 miles    
Events      
Averages and records for this station are not official NWS values.
T = Trace of Precipitation, MM = Missing Value Source: NWS Daily Summary

Daily Weather History Graph

Daily Weather History Graph

Search for Another Location

Airport or City:

Astronomy

Oct. 28, 2012 Rise Set
Actual Time 7:46 AM EDT 6:22 PM EDT
Civil Twilight 7:18 AM EDT 6:50 PM EDT
Nautical Twilight 6:46 AM EDT 7:22 PM EDT
Astronomical Twilight 6:15 AM EDT 7:54 PM EDT
Moon 5:39 PM EDT (10/28) 6:38 AM EDT (10/28)
Length of Visible Light 11h 32m
Length of Day
10h 36m
Waxing Gibbous, 99% of the Moon is Illuminated
Oct 28
Waxing Gibbous
Oct 29
Full
Nov 6
Last Quarter
Nov 13
New
Nov 20
First Quarter

Hourly Weather History & Observations

Time (EDT) Temp. Windchill Dew Point Humidity Pressure Visibility Wind Dir Wind Speed Gust Speed Precip Events Conditions
12:15 AM 44.6 °F 40.2 °F 42.8 °F 93% 30.02 in 9.0 mi North 8.1 mph - N/A   Overcast
12:35 AM 44.6 °F 40.7 °F 42.8 °F 93% 30.01 in 7.0 mi North 6.9 mph - N/A   Overcast
12:55 AM 44.6 °F 41.4 °F 42.8 °F 93% 30.00 in 5.0 mi North 5.8 mph - N/A   Overcast
1:15 AM 44.6 °F 39.7 °F 42.8 °F 93% 30.00 in 5.0 mi North 9.2 mph - N/A   Overcast
1:55 AM 44.6 °F 40.7 °F 42.8 °F 93% 30.00 in 5.0 mi North 6.9 mph - N/A   Overcast
2:15 AM 44.6 °F 40.2 °F 42.8 °F 93% 29.99 in 5.0 mi North 8.1 mph - N/A   Overcast
2:35 AM 44.6 °F 39.7 °F 42.8 °F 93% 29.98 in 7.0 mi North 9.2 mph - N/A   Overcast
2:55 AM 44.6 °F 40.2 °F 42.8 °F 93% 29.98 in 8.0 mi North 8.1 mph - N/A   Overcast
3:15 AM 44.6 °F 40.7 °F 42.8 °F 93% 29.99 in 9.0 mi North 6.9 mph - N/A   Overcast
3:35 AM 44.6 °F 40.2 °F 42.8 °F 93% 29.98 in 10.0 mi North 8.1 mph - N/A   Overcast
3:55 AM 44.6 °F 39.2 °F 42.8 °F 93% 29.98 in 5.0 mi North 10.4 mph - N/A   Overcast
4:15 AM 44.6 °F 39.2 °F 42.8 °F 93% 29.97 in 7.0 mi North 10.4 mph - N/A   Overcast
4:35 AM 44.6 °F 39.2 °F 42.8 °F 93% 29.98 in 5.0 mi North 10.4 mph 16.1 mph N/A   Overcast
4:55 AM 44.6 °F 40.2 °F 42.8 °F 93% 29.97 in 3.0 mi North 8.1 mph - N/A   Overcast
5:15 AM 44.6 °F 41.4 °F 42.8 °F 93% 29.97 in 3.0 mi North 5.8 mph - N/A   Overcast
5:35 AM 44.6 °F 39.7 °F 42.8 °F 93% 29.97 in 4.0 mi North 9.2 mph - N/A   Overcast
5:55 AM 44.6 °F 40.7 °F 41.0 °F 87% 29.96 in 5.0 mi North 6.9 mph - N/A   Overcast
6:15 AM 44.6 °F 40.7 °F 42.8 °F 93% 29.95 in 10.0 mi North 6.9 mph - N/A   Overcast
6:35 AM 44.6 °F 39.2 °F 41.0 °F 87% 29.95 in 8.0 mi NNE 10.4 mph - N/A   Overcast
6:55 AM 44.6 °F 41.4 °F 41.0 °F 87% 29.95 in 9.0 mi North 5.8 mph - N/A   Overcast
7:15 AM 42.8 °F 40.1 °F 41.0 °F 93% 29.95 in 5.0 mi North 4.6 mph - N/A   Overcast
7:35 AM 42.8 °F 38.0 °F 41.0 °F 93% 29.95 in 7.0 mi NNE 8.1 mph - N/A   Overcast
7:55 AM 42.8 °F 39.3 °F 41.0 °F 93% 29.95 in 10.0 mi North 5.8 mph - N/A   Overcast
8:15 AM 42.8 °F 38.0 °F 41.0 °F 93% 29.95 in 8.0 mi North 8.1 mph - N/A   Overcast
8:35 AM 42.8 °F 37.5 °F 41.0 °F 93% 29.94 in 7.0 mi North 9.2 mph - N/A   Overcast
8:55 AM 42.8 °F 37.5 °F 41.0 °F 93% 29.94 in 3.0 mi North 9.2 mph - N/A   Overcast
9:15 AM 42.8 °F 37.5 °F 41.0 °F 93% 29.95 in 4.0 mi North 9.2 mph - N/A   Overcast
9:35 AM 42.8 °F 37.0 °F 41.0 °F 93% 29.95 in 5.0 mi North 10.4 mph 16.1 mph N/A   Overcast
9:55 AM 42.8 °F 37.5 °F 41.0 °F 93% 29.94 in 5.0 mi NNE 9.2 mph - N/A   Overcast
10:15 AM 42.8 °F 38.6 °F 41.0 °F 93% 29.94 in 3.0 mi North 6.9 mph - N/A   Overcast
10:55 AM 42.8 °F 38.6 °F 41.0 °F 93% 29.94 in 4.0 mi North 6.9 mph - N/A   Overcast
11:15 AM 42.8 °F 38.6 °F 41.0 °F 93% 29.94 in 8.0 mi North 6.9 mph - N/A   Overcast
11:35 AM 42.8 °F 38.0 °F 41.0 °F 93% 29.94 in 5.0 mi North 8.1 mph - N/A   Overcast
11:55 AM 42.8 °F 37.0 °F 41.0 °F 93% 29.93 in 7.0 mi North 10.4 mph - N/A   Overcast
12:15 PM 42.8 °F 36.2 °F 41.0 °F 93% 29.92 in 10.0 mi North 12.7 mph - N/A   Overcast
12:35 PM 42.8 °F 37.5 °F 41.0 °F 93% 29.92 in 10.0 mi North 9.2 mph - N/A   Overcast
1:15 PM 42.8 °F 37.5 °F 41.0 °F 93% 29.90 in 5.0 mi North 9.2 mph - N/A   Overcast
1:35 PM 42.8 °F 38.0 °F 41.0 °F 93% 29.90 in 5.0 mi North 8.1 mph - N/A   Overcast
1:55 PM 42.8 °F 37.5 °F 41.0 °F 93% 29.89 in 5.0 mi North 9.2 mph - N/A   Overcast
2:15 PM 42.8 °F 37.0 °F 41.0 °F 93% 29.88 in 5.0 mi NNW 10.4 mph 17.3 mph N/A   Overcast
2:35 PM 42.8 °F 37.0 °F 41.0 °F 93% 29.88 in 7.0 mi North 10.4 mph - N/A   Overcast
2:55 PM 42.8 °F 38.6 °F 41.0 °F 93% 29.87 in 9.0 mi NNW 6.9 mph - N/A   Overcast
3:15 PM 42.8 °F 37.5 °F 41.0 °F 93% 29.87 in 4.0 mi North 9.2 mph - N/A   Overcast
3:35 PM 42.8 °F 37.0 °F 41.0 °F 93% 29.86 in 5.0 mi North 10.4 mph - N/A   Overcast
3:55 PM 42.8 °F 37.0 °F 39.2 °F 87% 29.86 in 3.0 mi North 10.4 mph - N/A   Overcast
4:15 PM 42.8 °F 36.6 °F 39.2 °F 87% 29.87 in 2.5 mi North 11.5 mph 16.1 mph N/A   Overcast
4:35 PM 42.8 °F 37.5 °F 39.2 °F 87% 29.87 in 3.0 mi North 9.2 mph - N/A   Overcast
4:55 PM 42.8 °F 37.5 °F 41.0 °F 93% 29.86 in 5.0 mi North 9.2 mph - N/A   Overcast
5:15 PM 42.8 °F 38.0 °F 39.2 °F 87% 29.86 in 8.0 mi North 8.1 mph - N/A   Overcast
5:35 PM 42.8 °F 37.5 °F 39.2 °F 87% 29.85 in 3.0 mi North 9.2 mph - N/A   Overcast
5:55 PM 42.8 °F 38.0 °F 39.2 °F 87% 29.86 in 4.0 mi North 8.1 mph - N/A   Overcast
6:15 PM 42.8 °F 37.5 °F 39.2 °F 87% 29.86 in 10.0 mi North 9.2 mph - N/A   Overcast
6:35 PM 42.8 °F 37.0 °F 39.2 °F 87% 29.86 in 10.0 mi North 10.4 mph 17.3 mph N/A   Overcast
6:55 PM 42.8 °F 38.0 °F 39.2 °F 87% 29.87 in 10.0 mi North 8.1 mph 16.1 mph N/A   Overcast
7:15 PM 42.8 °F 37.0 °F 39.2 °F 87% 29.87 in 10.0 mi North 10.4 mph 18.4 mph N/A   Overcast
7:35 PM 42.8 °F 38.6 °F 39.2 °F 87% 29.87 in 10.0 mi North 6.9 mph - N/A   Overcast
7:55 PM 42.8 °F 38.0 °F 39.2 °F 87% 29.87 in 10.0 mi North 8.1 mph - N/A   Overcast
8:15 PM 42.8 °F 38.6 °F 39.2 °F 87% 29.87 in 10.0 mi North 6.9 mph - N/A   Overcast
8:35 PM 42.8 °F 38.0 °F 39.2 °F 87% 29.87 in 10.0 mi NNE 8.1 mph 16.1 mph N/A   Overcast
8:55 PM 42.8 °F 38.0 °F 39.2 °F 87% 29.86 in 10.0 mi North 8.1 mph - N/A   Overcast
9:15 PM 42.8 °F 38.0 °F 39.2 °F 87% 29.86 in 10.0 mi North 8.1 mph 16.1 mph N/A   Overcast
9:35 PM 42.8 °F 38.0 °F 39.2 °F 87% 29.86 in 9.0 mi North 8.1 mph - N/A   Overcast
9:55 PM 42.8 °F 37.0 °F 39.2 °F 87% 29.86 in 9.0 mi North 10.4 mph - N/A   Overcast
10:15 PM 42.8 °F 37.0 °F 39.2 °F 87% 29.86 in 10.0 mi North 10.4 mph - N/A   Overcast
10:35 PM 42.8 °F 37.5 °F 39.2 °F 87% 29.85 in 10.0 mi North 9.2 mph - N/A   Overcast
11:35 PM 42.8 °F 38.0 °F 39.2 °F 87% 29.84 in 10.0 mi North 8.1 mph - N/A   Overcast
11:55 PM 42.8 °F 38.0 °F 39.2 °F 87% 29.84 in 4.0 mi NNW 8.1 mph - N/A   Overcast